[TLELIST]

Mailing List Information:

  • This mailing list is a public mailing list - anyone may join or leave, at any time.

  • This mailing list is announce-only.

International Space Station (ISS) / Hubble Space Telescope (HST) / Chandra X-Ray Observatory Orbital Data via EMAIL

Privacy Policy:

Private list

Archives:

[TLELIST] Current TLEs

Sent November 11th 2019

HST 1 20580U 90037B 19314.51035153 .00000465 00000-0 17379-4 0 9991 2 20580 28.4705 334.2862 0002451 241.1153 253.4713 15.09296109422791 ISS (ZARYA) 1 25544U 98067A 19315.25079355 .00000402 00000-0 15071-4 0 9999 2 25544 51.6456 352.1141 0006117 265.3064 138.7739 15.49998209198076 CXO 1 25867U 99040B 19317.31418677 .00000845 00000-0 00000+0 0 9994 2 25867 65.8360 272.4173 7404890 231.1797 0.4032 0.37801282 19376 ____________________________________________________________________ These 2-Line ...

[TLELIST] Current TLEs

Sent November 10th 2019

HST 1 20580U 90037B 19313.68096066 +.00000451 +00000-0 +16519-4 0 9998 2 20580 028.4705 339.7709 0002461 231.7659 067.4234 15.09295586422573 ISS (ZARYA) 1 25544U 98067A 19314.37340278 -.00010365 00000-0 -17381-3 0 9992 2 25544 51.6466 356.4629 0006244 262.3470 282.6576 15.49981635197931 CXO 1 25867U 99040B 19314.67003313 .00000819 00000-0 00000+0 0 9998 2 25867 65.8584 272.4586 7398835 231.2367 0.4307 0.37802162 19369 ____________________________________________________________________ These 2-Line ...

[TLELIST] Current TLEs

Sent November 9th 2019

HST 1 20580U 90037B 19313.17214490 .00000462 00000-0 17163-4 0 9993 2 20580 28.4705 343.1356 0002480 225.7795 183.2991 15.09295363422586 ISS (ZARYA) 1 25544U 98067A 19313.25046521 -.00000458 00000-0 00000+0 0 9999 2 25544 51.6421 2.0272 0006153 258.6240 136.2655 15.49958433197765 CXO 1 25867U 99040B 19314.67003313 .00000819 00000-0 00000+0 0 9998 2 25867 65.8584 272.4586 7398835 231.2367 0.4307 0.37802162 19369 ____________________________________________________________________ These 2-Line ...

[TLELIST] Current TLEs

Sent November 8th 2019

HST 1 20580U 90037B 19311.55370372 +.00000471 +00000-0 +17717-4 0 9990 2 20580 028.4706 353.8382 0002535 207.1851 030.7287 15.09294633422259 ISS (ZARYA) 1 25544U 98067A 19311.65034873 .00000782 00000-0 21538-4 0 9991 2 25544 51.6451 9.9487 0005806 239.8014 220.3094 15.50259288197515 CXO 1 25867U 99040B 19312.02583253 +.00000771 +00000-0 +00000-0 0 9999 2 25867 065.8719 272.4947 7394154 231.3000 000.4261 00.37805902008222 ____________________________________________________________________ These 2-Line ...

[TLELIST] Current TLEs

Sent November 7th 2019

HST 1 20580U 90037B 19311.18684250 .00000473 00000-0 17843-4 0 9994 2 20580 28.4706 356.2642 0002552 203.1438 197.4940 15.09294430422286 ISS (ZARYA) 1 25544U 98067A 19311.39056523 .00000757 00000-0 21099-4 0 9992 2 25544 51.6451 11.2360 0005828 238.9618 210.3569 15.50258526197470 CXO 1 25867U 99040B 19312.02583253 +.00000771 +00000-0 +00000-0 0 9999 2 25867 065.8719 272.4947 7394154 231.3000 000.4261 00.37805902008222 ____________________________________________________________________ These 2-Line ...

[TLELIST] Current TLEs

Sent November 6th 2019

HST 1 20580U 90037B 19309.78258102 .00000453 00000-0 16623-4 0 9993 2 20580 28.4707 5.5504 0002605 187.5888 127.9318 15.09293577422076 ISS (ZARYA) 1 25544U 98067A 19310.23194292 .00001270 00000-0 30001-4 0 9994 2 25544 51.6446 16.9793 0005894 234.5035 224.3639 15.50257723197295 CXO 1 25867U 99040B 19312.02583253 +.00000771 +00000-0 +00000-0 0 9999 2 25867 065.8719 272.4947 7394154 231.3000 000.4261 00.37805902008222 ____________________________________________________________________ These 2-Line ...

[TLELIST] Current TLEs

Sent November 5th 2019

HST 1 20580U 90037B 19308.55995259 .00000443 00000-0 15991-4 0 9994 2 20580 28.4707 13.6355 0002661 174.2782 324.9794 15.09292805421897 ISS (ZARYA) 1 25544U 98067A 19309.26609277 .00005709 00000-0 10697-3 0 9998 2 25544 51.6434 21.7673 0005860 232.6569 232.3132 15.50258596197147 CXO 1 25867U 99040B 19309.38157645 +.00000711 +00000-0 +00000-0 0 9990 2 25867 065.8933 272.5360 7390853 231.3628 000.4042 00.37807464008208 ____________________________________________________________________ These 2-Line ...

[TLELIST] Current TLEs

Sent November 4th 2019

HST 1 20580U 90037B 19307.63660001 +.00000466 +00000-0 +17402-4 0 9990 2 20580 028.4706 019.7414 0002700 164.4383 347.8837 15.09292376421661 ISS (ZARYA) 1 25544U 98067A 19308.36788973 .00000965 00000-0 24728-4 0 9999 2 25544 51.6440 26.2170 0005997 227.5167 261.3515 15.50250127197008 CXO 1 25867U 99040B 19309.38157645 +.00000711 +00000-0 +00000-0 0 9990 2 25867 065.8933 272.5360 7390853 231.3628 000.4042 00.37807464008208 ____________________________________________________________________ These 2-Line ...

[TLELIST] Current TLEs

Sent November 3rd 2019

HST 1 20580U 90037B 19307.18336677 .00000481 00000-0 18353-4 0 9992 2 20580 28.4706 22.7385 0002718 159.7405 45.0800 15.09292145421686 ISS (ZARYA) 1 25544U 98067A 19307.39380661 .00001105 00000-0 27157-4 0 9999 2 25544 51.6442 31.0457 0005901 224.2988 224.7191 15.50247442196853 CXO 1 25867U 99040B 19309.38157645 +.00000711 +00000-0 +00000-0 0 9990 2 25867 065.8933 272.5360 7390853 231.3628 000.4042 00.37807464008208 ____________________________________________________________________ These 2-Line ...

[TLELIST] Current TLEs

Sent November 2nd 2019

HST 1 20580U 90037B 19305.71572363 .00000513 00000-0 20315-4 0 9990 2 20580 28.4705 32.4436 0002771 144.3192 350.3323 15.09291394421465 ISS (ZARYA) 1 25544U 98067A 19306.23428282 -.00009490 00000-0 -15701-3 0 9991 2 25544 51.6432 36.7949 0005779 222.2079 231.3672 15.50238721196670 CXO 1 25867U 99040B 19306.73864145 .00000646 00000-0 00000+0 0 9992 2 25867 65.9264 272.5825 7387532 231.4315 0.5579 0.37803940 19333 ____________________________________________________________________ These 2-Line ...

< < Previous

Index

 

this list's archives:

(archive rss , atom rss/atom )

Administration